Location: Dillon
(41.1766°N, 107.0923°W)
Time: 06:38:10
(UTC+00:00)

Hubble Space Telescope - Visible Passes

Search period start: 28 January 2022 00:00
Search period end: 07 February 2022 00:00
Orbit: 534 x 538 km, 28.5° (Epoch: 27 January)

Date Brightness Start Highest point End Pass type
(mag) Time Alt. Az. Time Alt. Az. Time Alt. Az.
01 Feb 3.3 02:20:27 10° S 02:21:21 11° S 02:21:21 11° S visible
02 Feb 3.1 02:08:34 10° SSW 02:10:09 12° S 02:10:47 12° SSE visible
03 Feb 3.1 01:56:53 10° SSW 01:58:45 13° S 02:00:13 11° SSE visible
04 Feb 3.2 01:45:19 10° SSW 01:47:21 13° S 01:49:22 10° SE visible
05 Feb 3.2 01:33:49 10° SSW 01:35:56 14° S 01:38:03 10° SSE visible
06 Feb 3.2 01:22:23 10° SSW 01:24:32 14° S 01:26:39 10° SSE visible
